Location: Erdweis
(48.5167°N, 15.3500°E)
Time: 16:53:25
(UTC+00:00)

ARGOS - Pass Details

Date: 18 September 2020
Orbit: 821 x 834 km, 98.4° (Epoch: 29 October)

Event Time Altitude Azimuth Distance (km) Brightness Sun altitude
Rises 17:33:43 0° 146° (SE) 3,343 5.9 -5.7°
Reaches altitude 10° 17:36:07 10° 140° (SE) 2,415 5.1 -6.1°
Maximum altitude 17:41:14 48° 68° (ENE) 1,071 3.4 -6.9°
Drops below altitude 10° 17:46:23 10° 355° (N) 2,437 5.8 -7.8°
Sets 17:48:49 0° 350° (N) 3,377 6.6 -8.1°
